Volver al catálogo

COSMOS 2251 DEB

ActivoLEO
NORAD 33973·DEBRIS·🇷🇺 Russia

Lanzado Jun 16, 1993 desde Plesetsk Cosmodrome

Loading…

Próximos Pases (próximas 24 horas)

TLE

ActualizadoSource: Space-Track

Época: Sep 14, 2026, 10:35 UTC

1 33973U 93036FG  26257.44147392  .00000204  00000-0  64611-4 0  9990
2 33973  74.0083 308.0167 0044929  59.3515 313.6552 14.45611539925842

Sigue COSMOS 2251 DEB en tiempo real con AllMySat

Download on the App Store